Regional Weather Roundup
Issued by NWS

Home | Current Version | Previous Version | Graphics & Text | Print | Product List | Glossary On
Versions: 1 2 3 4 5 6 7 8 9 10 11 12 13 14 15 16 17 18 19 20 21 22 23 24 25 26 27 28 29 30 31 32 33 34 35 36 37 38 39 40 41 42 43 44 45 46 47 48 49 50
000
ASUS43 KMPX 170901
RWRMN
WEATHER ROUNDUP FOR MINNESOTA
NATIONAL WEATHER SERVICE TWIN CITIES/CHANHASSEN MN
300 AM CST SAT FEB 17 2018


NOTE: "FAIR" INDICATES FEW OR NO CLOUDS BELOW 12,000 FEET WITH NO
SIGNIFICANT WEATHER AND/OR OBSTRUCTIONS TO VISIBILITY. N/A MEANS
CURRENT SKY AND/OR WEATHER CONDITIONS ARE NOT AVAILABLE.

MNZ060>063-068>070-171000-
   Twin Cities Metro

CITY           SKY/WX    TMP DP  RH WIND       PRES   REMARKS
TWIN CITIES    CLOUDY    23  13  65 SW9G18    29.92F WCI  13
ST PAUL        CLOUDY    19  11  70 SE6       29.94F WCI  11
CRYSTAL        CLOUDY    22  11  62 SW9       29.90F WCI  12
BLAINE         FAIR      23  14  68 S13G21    29.90F WCI  11
LAKEVILLE      FAIR      19  12  73 S10       29.91F WCI   8
EDEN PRAIRIE   CLOUDY    22  12  65 SW10      29.90F WCI  11
SOUTH ST PAUL  FAIR      21  11  65 S3        29.92F
LAKE ELMO      FAIR      19  12  73 S8        29.94F WCI   9
$$
MNZ001>005-007-008-013>017-022>024-027-028-171000-
   Northwest Minnesota

CITY           SKY/WX    TMP DP  RH WIND       PRES   REMARKS
BEMIDJI        FAIR      19  15  88 SW8       29.72F WCI   8
HALLOCK        CLOUDY    12   9  85 W8        29.73S WCI   1
WARROAD        FAIR      14   9  79 W10       29.68S WCI   1
THIEF RVR FALL FAIR      16  11  80 W13       29.74R WCI   2
CROOKSTON      FAIR      16  10  79 NW9       29.78S WCI   4
FOSSTON        FAIR      16  10  79 SW7       29.76R WCI   6
DETROIT LAKES  FAIR      21  19  93 W7        29.79S WCI  13
MOORHEAD       FAIR      19  14  79 SW7       29.82R WCI  10
PARK RAPIDS    FAIR      17  13  84 SW7       29.75F WCI   8
MAHNOMEN       FAIR      18  15  88 SW9       29.76S WCI   7
$$
MNZ006-009>011-018-025>026-171000-
   North Central Minnesota

CITY           SKY/WX    TMP DP  RH WIND       PRES   REMARKS
BAUDETTE       MOCLDY    18  11  74 W10       29.66R WCI   6
FLAG ISLAND    FAIR      12   7  79 W13       29.64F WCI  -3
INTL FALLS     FAIR      20  12  71 SW9       29.66S WCI   9
WASKISH        FAIR      19  16  86 SW12      29.71R WCI   7
BIG FORK       FAIR      19  12  73 SW8       29.70S WCI   9
LONGVILLE      FAIR      16  10  79 S7        29.77S WCI   6
GRAND RAPIDS   MOCLDY    15   9  76 S10       29.76F WCI   2
CRANE LAKE     CLOUDY    18   9  68 S6        29.70F WCI   9
ORR            CLOUDY    18   9  68 S9        29.66F WCI   6
COOK           CLOUDY    16   9  73 SW9       29.71F WCI   4
WALKER         FAIR      18  14  84 SW10      29.74F WCI   6
$$
MNZ012-019>021-037-171000-
   Northeast Minnesota

CITY           SKY/WX    TMP DP  RH WIND       PRES   REMARKS
DULUTH         CLOUDY    15   7  70 SW17      29.77F WCI  -1
ELY            FAIR      14   9  79 SW8       29.71F WCI   3
HIBBING        MOCLDY    13   6  74 SW8       29.74F WCI   2
EVELETH        FAIR     N/A N/A N/A SW13G18   29.74F
DULUTH HARBOR  CLOUDY    18  10  73 SW10      29.85F WCI   6
TWO HARBORS    MOCLDY    18   9  68 SW8       29.78F WCI   7
G MARAIS ARPRT CLOUDY    10   5  79 S7        29.70F WCI   0
$$
MNZ029>031-032-039>041-046>048-054>057-064-171000-
   West Central Minnesota

CITY           SKY/WX    TMP DP  RH WIND       PRES   REMARKS
FERGUS FALLS   FAIR      19  16  86 S7        29.82S WCI  10
WHEATON        CLOUDY    27  18  69 W8        29.85S WCI  18
MORRIS         PTCLDY    23  16  74 W7        29.81F WCI  15
ALEXANDRIA     CLOUDY    20  13  74 SW8       29.81F WCI  10
ELBOW LAKE     FLURRIES  20  14  78 SW6       29.82F WCI  12
WADENA         FAIR      19  16  86 SW8       29.78F WCI   9
GLENWOOD       FAIR      16  12  86 SW5       29.82F WCI   9
APPLETON       CLOUDY    27  18  69 SW6       29.83F WCI  20
BENSON         PTCLDY    21  16  79 S3        29.84F
MADISON        PTCLDY    28  21  74 SW8       29.83F WCI  20
WILLMAR        FAIR      21  18  86 CALM      29.88S
$$
MNZ033>034-036-042>043-049>051-058-059-171000-
   Central Minnesota

CITY           SKY/WX    TMP DP  RH WIND       PRES   REMARKS
ST CLOUD       CLOUDY    17  12  80 S5        29.86F WCI  10
SAUK CENTRE    FAIR      19  14  79 SW5       29.83F WCI  13
PAYNESVILLE    FAIR      20  15  82 S6        29.86S WCI  12
AITKIN         MOCLDY    16  10  79 S9        29.79F WCI   4
PINE RIVER     FAIR      16  10  79 S5        29.81F WCI   9
BRAINERD       CLOUDY    16  10  77 SW9       29.80F WCI   4
STAPLES        FAIR      18  12  79 SW6       29.78F WCI   9
LONG PRAIRIE   FAIR      18  12  79 S5        29.82F WCI  11
LITTLE FALLS   CLOUDY    18   9  68 S6        29.84F WCI   9
LITCHFIELD     MOCLDY    21  16  79 CALM      29.87F
BUFFALO        CLOUDY    20  12  71 S7        29.90F WCI  11
MAPLE LAKE     CLOUDY    20  14  76 MISG      29.88F
HUTCHINSON     CLOUDY    20  14  76 S5        29.89F WCI  14
$$
MNZ037-044-045-052-053-171000-
   East Central Minnesota

CITY           SKY/WX    TMP DP  RH WIND       PRES   REMARKS
PRINCETON      FAIR      19  12  73 S7        29.87F WCI  10
MORA           FAIR      16  10  79 S5        29.88F WCI   9
CAMBRIDGE      FAIR      21  10  63 S7        29.88F WCI  13
RUSH CITY      FAIR      16  10  76 S6        29.89F WCI   7
MOOSE LAKE     CLOUDY    14   9  79 SW9       29.82F WCI   2
HINCKLEY       FAIR      14  10  85 S5        29.86F WCI   6
CLOQUET        CLOUDY    14   7  73 SW10      29.80F WCI   1
MCGREGOR       FAIR      18  10  73 S8        29.80F WCI   7
$$
MNZ071>073-080-081-089-090-097-098-171000-
   Southwest Minnesota

CITY           SKY/WX    TMP DP  RH WIND       PRES   REMARKS
MONTEVIDEO     CLOUDY    27  18  69 CALM      29.86S
GRANITE FALLS  CLOUDY    28  20  70 SW13G18   29.88S WCI  18
CANBY          CLOUDY    27  20  75 SW10      29.85F WCI  17
MARSHALL       CLOUDY    27  18  69 SW23      29.85F WCI  12
REDWOOD FALLS  CLOUDY    26  16  65 SW16      29.87F WCI  14
OLIVIA         PTCLDY    27  18  69 SW10      29.87S WCI  17
PIPESTONE      FLURRIES  25  18  74 SW17      29.85F WCI  11
WINDOM         CLOUDY    25   7  46 S15G21    29.90F WCI  12
WORTHINGTON    CLOUDY    23  15  71 SW17      29.90F WCI   9
JACKSON        CLOUDY    25  14  63 SW13G21   29.92F WCI  13
TRACY          CLOUDY    26  18  72 SW18G25   29.86F WCI  13
SLAYTON        CLOUDY    24  17  75 SW23      29.86F WCI   8
$$
MNZ065>067-074>077-082>085-091>093-171000-
   South Central Minnesota

CITY           SKY/WX    TMP DP  RH WIND       PRES   REMARKS
MANKATO        CLOUDY    23  14  68 S14       29.93F WCI  11
NEW ULM        CLOUDY    23  12  63 SW12      29.90F WCI  12
ST JAMES       CLOUDY    25  16  68 S14       29.91F WCI  13
FAIRMONT       CLOUDY    22  15  75 SW18      29.93F WCI   7
GLENCOE        CLOUDY    21  15  77 S8        29.89F WCI  11
FARIBAULT      MOCLDY    19  12  73 S6        29.93F WCI  11
OWATONNA       FAIR      19  12  73 S10       29.94F WCI   8
WASECA         CLOUDY    23  14  68 S15       29.95F WCI  10
ALBERT LEA     CLOUDY    25  10  54 S7        29.96F WCI  17
$$
MNZ078>079-086>088-094>096-171000-
   Southeast Minnesota

CITY           SKY/WX    TMP DP  RH WIND       PRES   REMARKS
ROCHESTER      CLOUDY    18  10  71 S20       29.95F WCI   2
RED WING       MOCLDY    21   7  53 S6        29.96F WCI  14
STANTON        FAIR      21  12  67 S10G20    29.92F WCI  10
DODGE CENTER   FAIR      18  10  73 S18       29.94F WCI   2
WINONA         FAIR      21   9  58 S5        30.01F WCI  15
AUSTIN         MOCLDY    18  10  73 S12       29.98F WCI   5
PRESTON        FAIR      18   7  62 S15       29.98F WCI   4
$$
ABBREVIATIONS USED IN REMARKS
   TC - TEMPERATURES IN CELSIUS
  WCI - WIND CHILL INDEX
   HX - HEAT INDEX
  VSB - VISIBILITY
$$




USA.gov is the U.S. government's official web portal to all federal, state and local government web resources and services.